DW6282 Weather Reports


time (UTC)temp
C
wind
direction
speed
KPH
gust
KPH
rain 1hr
cm
rain 24hr
cm
rain mn
cm
humidity
%
barometer
mb
20260504191537 27 119 4.8 12.9 0.00 0.00 0.00 68 1012.5
20260504190028 27 198 4.8 14.5 0.00 0.00 0.00 67 1012.6
20260504184529 27 165 4.8 12.9 0.00 0.00 0.00 68 1012.7
20260504183025 27 206 6.4 12.9 0.00 0.00 0.00 67 1012.8
20260504181522 27 205 1.6 20.9 0.00 0.00 0.00 71 1013.2
20260504180020 27 200 4.8 17.7 0.00 0.00 0.00 67 1013.3
20260504174519 27 135 4.8 16.1 0.00 0.00 0.00 69 1013.4
20260504173018 26 190 3.2 17.7 0.00 0.00 0.00 70 1013.7
20260504171512 26 233 3.2 16.1 0.00 0.00 0.00 68 1013.9
20260504150110 23 188 4.8 12.9 0.00 0.00 0.00 73 1014.7
20260504081503 15 210 0.0 0.0 0.00 0.00 0.00 84 1014.9
20260504080116 15 210 0.0 0.0 0.00 0.00 0.00 83 1015.3
20260504044534 16 210 0.0 1.6 0.00 0.00 0.00 80 1017.1
20260504043036 16 210 0.0 0.0 0.00 0.00 0.00 80 1017.2
20260504041535 16 210 0.0 0.0 0.00 0.00 0.00 78 1017.1
20260504040057 17 210 0.0 1.6 0.00 0.00 0.00 77 1017.1
20260504034533 17 210 0.0 0.0 0.00 0.00 0.00 76 1017.2
20260504033035 17 210 0.0 0.0 0.00 0.00 0.00 75 1017.2
20260504031535 17 210 0.0 1.6 0.00 0.00 0.00 75 1017.1
20260504030031 18 210 0.0 1.6 0.00 0.00 0.00 74 1016.9
20260504024530 17 210 0.0 0.0 0.00 0.00 0.00 74 1017.1
20260504023030 18 210 0.0 0.0 0.00 0.00 0.00 73 1017.0
20260504021530 19 210 0.0 3.2 0.00 0.00 0.00 72 1017.0
20260504020029 19 213 0.0 1.6 0.00 0.00 0.00 70 1017.0
20260504014529 20 201 0.0 3.2 0.00 0.00 0.00 69 1017.0
20260504013028 20 174 0.0 4.8 0.00 0.00 0.00 67 1017.1
20260504011527 20 197 1.6 3.2 0.00 0.00 0.00 65 1016.9
20260504010029 21 205 1.6 6.4 0.00 0.00 0.00 64 1017.0
20260504004539 21 194 1.6 6.4 0.00 0.00 0.00 61 1016.8
20260504003025 22 196 1.6 6.4 0.00 0.00 0.00 58 1016.7
20260504001524 23 210 1.6 9.7 0.00 0.00 0.00 56 1016.8
20260504000024 24 221 3.2 11.3 0.00 0.00 0.00 53 1016.8
20260503234522 24 210 1.6 9.7 0.00 0.00 0.00 52 1017.0
20260503233022 25 200 3.2 11.3 0.00 0.00 0.00 51 1017.2
20260503231520 25 214 3.2 12.9 0.00 0.00 0.00 50 1017.1
20260503230019 25 210 3.2 9.7 0.00 0.00 0.00 50 1017.3
20260503224516 25 171 3.2 9.7 0.00 0.00 0.00 49 1017.3
20260503223015 25 203 3.2 11.3 0.00 0.00 0.00 49 1017.7
20260503221514 25 211 4.8 12.9 0.00 0.00 0.00 48 1017.5
20260503220012 26 206 1.6 8.0 0.00 0.00 0.00 49 1017.6
20260503214509 26 224 3.2 11.3 0.00 0.00 0.00 47 1017.8
20260503213007 27 215 1.6 9.7 0.00 0.00 0.00 46 1018.0
20260503211505 27 49 0.0 14.5 0.00 0.00 0.00 52 1018.2
20260503210005 27 165 0.0 6.4 0.00 0.00 0.00 46 1018.4
20260503204502 27 232 1.6 11.3 0.00 0.00 0.00 46 1018.5
20260503203059 27 203 0.0 6.4 0.00 0.00 0.00 50 1018.8
20260503201558 27 233 0.0 6.4 0.00 0.00 0.00 52 1019.0
20260503200101 26 34 3.2 9.7 0.00 0.00 0.00 53 1019.2
20260503194557 26 31 1.6 8.0 0.00 0.00 0.00 47 1019.4
20260503193110 27 37 1.6 6.4 0.00 0.00 0.00 49 1019.6